EHI
0 0 0 0 0 0 0 0 0 0 0 0 0 0 0 0 0 0 0 0 0 0 0 0 0 0 0 0 0 0 0 0 0 0 0 0 0 0
0 0 0 0 0 0 0 0 0 0 0 0 0 0 0 0 0 0 0 0 0 0 0 0 0 0 0 0 0 0 0 0 0 0 0 0 0 0
0 0 0 0 0 0 0 0 0 0 0 0 0 0 0 0 0 0 0 0 0 0 0 0 0 0 0 0 0 0 0 0 0 0 0 0 0 0
0 0 0 0 0 0 0 0 0 0 0 0 0 0 0 0 0 0 0 0 0 0 0 0 0 0 0 0 0 0 0 0 0 0 0 0 0 0
0 0 0 0 0 0 0 0 0 0 0 0 0 0 0 0 0 0 0 0 0 0 0 0 0 0 0 0 0 0 0 0 0 0 0 0 0 0
0 0 0 0 0 0 0 0 0 0 0 0 0 0 0 0 0 0 0 0 0 0 0 0 0 0 0 0 0 0 0 0 0 0 0 0 0 0
0 0 0 0 0 0 0 0 0 0 0 0 0 0 0 0 0 0 0 0 0 0 0 0 0 0 0 0 0 0 0 0 0 0 0 0 0 0
0 0 0 0 0 0 0 0 0 0 0 0 0 0 0 0 0 0 0 0 0 0 0 0 0 0 0 0 0 0 0 0 0 0 0 0 0 0
0 0 0 0 0 0 0 0 0 0 0 0 0 0 0 0 0 0 0 0 0 0 0 0 0 0 0 0 0 0 0 0 0 0 0 0 0 0
0 0 0 0 0 0 0 0 0 0 0 0 0 0 0 0 0 0 0 0 0 0 0 0 0 0 0 0 0 0 0 0 0 0 0 0 0 0
0 0 0 0 0 0 0 0 0 0 0 0 0 0 0 0 0 0 0 0 0 0 0 0 0 0 0 0 0 0 0 0 0 0 0 0 0 0
0 0 0 0 0 0 0 0 0 0 0 0 0 0 0 0 0 0 0 0 0 0 0 0 0 0 0 0 0 0 0 0 0 0 0 0 0 0
0 0 0 0 0 0 0 0 0 0 0 0 0 0 0 0 0 0 0 0 0 0 0 0 0 0 0 0 0 0 0 0 0 0 0 0 0 0
0 0 0 0 0 0 0 0 0 0 0 0 0 0 0 0 0 0 0 0 0 0 0 0 0 0 0 0 0 0 0 0 0 0 0 0 0 0
0 0 0 0 0 0 0 0 0 0 0 0 0 0 0 0 0 0 0 0 0 0 0 0 0 0 0 0 0 0 0 0 0 0 0 0 0 0
0 0 0 0 0 0 0 0 0 0 0 0 0 0 0 0 0 0 0 0 0 0 0 0 0 0 0 0 0 0 0 0 0 0 0 0 0 0
0 0 0 0 0 0 0 0 0 0 0 0 0 0 0 0 0 0 0 0 0 0 0 0 0 0 0 0 0 0 0 0 0 0 0 0 0 0
0 0 0 0 0 0 0 0 0 0 0 0 0 0 0 0 0 0 0 0 0 0 0 0 0 0 0 0 0 0 0 0 0 0 0 0 0 0
0 0 0 0 0 0 0 0 0 0 0 0 0 0 0 0 0 0 0 0 0 0 0 0 0 0 0 0 0 0 0 0 0 0 0 0 0 0
0 0 0 0 0 0 0 0 0 0 0 0 0 0 0 0 0 0 0 0 0 0 0 0 0 0 0 0 0 0 0 0 0 0 0 0 0 0
0 0 0 0 0 0 0 0 0 0 0 0 0 0 0 0 0 0 0 0 0 0 0 0 0 0 0 0 0 0 0 0 0 0 0 0 0 0
0 0 0 0 0 0 0 0 0 0 0 0 0 0 0 0 0 0 0 0 0 0 0 0 0 0 0 0 0 0 0 0 0 0 0 0 0 0
0 0 0 0 0 0 0 0 0 0 0 0 0 0 0 0 0 0 0 0 0 0 0 0 0 0 0 0 0 0 0 0 0 0 0 0 0 0
Wind_Speed
7 7 6 5 5 4 4 3 2 1 2 2 2 2 2 2 3 2 3 8 10 11 11 12 13 14 15 16 16 16 16 16 16 17 17 17 17 18
5 7 6 4 4 4 4 4 3 2 0 2 2 3 3 3 4 3 5 10 11 12 13 12 13 14 14 15 15 16 16 16 16 17 17 17 17 18
5 6 5 5 4 4 4 4 3 2 1 3 2 3 3 4 5 4 4 5 6 12 13 12 11 12 13 13 14 15 15 15 16 17 17 17 18 18
5 5 5 4 5 4 4 4 3 2 1 2 3 3 4 5 5 5 5 5 5 10 12 11 11 11 12 12 12 12 12 13 14 15 16 16 16 17
4 4 3 4 4 3 3 3 2 2 1 1 3 3 3 3 4 5 5 4 6 7 9 9 10 11 12 11 11 11 11 10 11 12 13 14 15 16
4 3 2 2 1 2 2 2 2 3 2 2 3 3 3 4 3 3 5 4 5 6 6 7 9 11 11 11 11 10 9 9 9 10 10 11 12 14
5 4 3 3 2 2 2 2 2 2 2 3 3 3 4 3 3 3 4 5 5 3 3 5 5 4 6 8 10 9 9 9 9 9 10 10 10 11
4 4 3 4 5 7 8 8 5 3 3 2 3 4 5 4 3 3 3 3 5 3 2 5 3 4 4 4 7 8 8 8 9 9 10 10 10 11
3 3 3 2 4 4 7 9 8 9 6 4 4 5 5 5 3 4 4 3 4 4 2 4 3 4 4 4 7 8 8 8 9 9 10 10 10 11
3 2 2 3 3 4 5 6 6 6 7 4 5 7 7 7 5 4 4 4 5 4 2 3 3 4 4 4 6 8 9 9 9 10 9 9 10 11
5 4 3 3 6 6 5 6 7 7 7 8 9 9 11 11 7 2 2 2 3 4 1 1 3 3 3 3 4 8 9 9 9 9 9 9 9 9
5 5 6 6 8 8 4 4 6 7 8 10 10 10 8 7 6 3 3 2 2 3 3 1 2 3 4 4 3 4 5 7 9 9 9 9 9 5
4 5 5 11 12 11 6 4 7 7 6 6 6 6 5 5 4 3 3 3 3 4 3 1 1 1 2 4 4 3 3 3 4 5 7 8 9 6
4 5 7 13 12 10 6 6 8 6 3 4 4 4 4 4 4 4 3 3 4 5 4 2 2 1 1 2 4 5 4 3 3 3 3 5 6 8
4 9 11 11 9 7 8 9 6 3 3 3 4 4 4 4 4 4 4 3 3 3 2 2 2 1 1 1 3 3 4 4 3 3 3 3 3 4
6 8 10 9 8 7 7 6 4 3 2 2 3 4 4 4 3 2 2 3 3 4 4 2 1 2 1 1 2 3 3 4 4 3 2 2 3 3
5 4 4 5 6 6 5 5 5 5 5 4 4 4 4 4 3 2 2 2 2 3 4 4 2 1 1 1 2 3 3 3 3 3 2 2 3 3
2 3 3 4 4 4 5 5 5 5 5 4 4 4 4 4 4 3 2 2 2 2 3 3 3 3 3 2 3 2 3 3 3 3 2 2 3 3
3 3 3 3 4 4 4 4 4 4 4 4 5 5 5 5 4 3 3 2 2 3 3 2 1 1 2 4 5 2 2 3 3 3 2 1 3 4
2 2 3 3 3 4 4 4 4 5 5 5 5 5 5 5 4 4 3 3 3 3 3 2 2 2 2 2 3 3 3 2 2 2 3 2 3 4
3 3 3 3 3 3 4 4 4 4 5 5 5 6 6 5 4 4 4 5 3 2 3 4 4 4 2 0 2 4 3 3 4 2 2 2 3 4
3 3 3 3 3 4 4 4 5 5 6 5 6 6 6 5 5 5 4 3 3 3 3 4 4 2 1 1 3 4 4 4 3 5 5 5 2 1
2 2 3 3 4 3 4 4 5 5 5 5 6 6 6 6 5 5 4 4 3 3 3 4 4 3 2 2 2 3 3 3 3 3 4 5 8 7
Wind_Direction
58 59 57 45 43 41 45 61 96 58 350 337 341 339 328 297 281 278 275 281 289 292 291 287 285 284 282 281 280 280 280 280 282 285 286 289 290 290
58 59 53 44 40 35 40 41 55 105 0 310 308 300 312 322 309 290 277 293 295 296 294 291 287 285 284 283 282 281 280 280 281 283 286 287 287 288
51 57 52 48 43 32 35 39 38 62 51 303 294 307 319 318 315 302 290 285 289 293 292 291 292 291 289 287 285 283 282 282 283 285 287 287 287 288
47 49 41 45 39 31 35 33 27 38 54 320 309 315 309 305 304 305 308 310 298 296 296 298 300 300 298 292 288 285 283 283 286 288 290 290 290 291
40 43 38 46 33 23 31 24 2 5 18 322 299 297 296 310 323 317 317 310 311 309 306 311 314 313 310 303 298 293 289 285 284 285 289 292 295 296
20 24 26 35 37 12 6 350 340 342 336 328 307 305 299 303 321 315 320 320 314 311 313 313 312 314 313 309 305 300 295 291 291 291 290 291 293 295
7 6 4 29 41 7 347 323 325 320 318 316 306 306 303 314 313 296 304 308 304 292 314 308 308 307 309 309 309 302 302 305 306 303 298 294 293 294
2 354 354 27 17 6 354 342 331 300 289 279 280 288 285 282 278 283 297 325 312 299 320 299 302 300 296 291 297 304 306 310 312 311 308 304 300 299
351 349 352 6 4 347 339 340 334 322 299 248 257 269 271 272 278 289 285 271 262 272 307 289 302 300 296 305 319 321 319 317 318 317 315 311 309 307
354 344 328 316 324 336 330 329 319 309 298 282 251 263 265 265 246 246 264 282 276 270 222 271 299 301 308 319 323 332 331 327 324 322 320 317 316 316
350 346 325 302 305 326 330 325 322 316 310 310 299 290 286 284 271 239 276 299 309 303 292 263 293 310 312 310 320 339 338 333 331 330 328 328 327 326
338 333 324 311 309 316 306 305 312 308 320 326 327 328 322 318 312 218 217 229 276 294 289 309 302 336 325 305 310 325 335 330 333 335 337 339 342 337
326 321 313 317 317 315 302 260 267 283 300 307 312 317 323 325 322 302 223 199 214 254 263 247 289 318 293 300 312 313 325 320 326 329 338 346 351 351
308 307 308 317 322 328 328 311 310 312 310 322 329 325 322 319 314 313 297 247 222 235 260 215 218 237 290 309 304 311 316 316 323 321 328 344 351 347
302 305 314 328 341 343 342 347 351 348 339 338 327 306 291 291 303 322 333 335 322 290 281 223 202 208 182 256 289 302 311 313 323 326 331 349 349 346
332 325 334 351 4 356 351 351 350 339 328 313 306 303 312 325 329 334 338 345 353 330 329 333 256 184 203 263 274 297 298 301 315 326 325 335 341 342
327 340 359 358 358 352 347 346 348 356 356 343 337 335 332 333 324 327 339 352 356 322 320 329 346 10 203 217 311 305 306 306 307 317 336 331 324 334
6 3 348 349 349 347 345 344 347 348 342 343 347 344 337 330 323 326 339 342 322 308 305 309 338 354 352 313 222 282 312 307 311 325 332 329 320 321
42 360 345 343 344 347 351 351 343 334 338 349 349 343 341 337 333 329 332 331 317 304 295 299 327 34 6 327 304 225 256 308 327 331 327 312 303 307
15 357 347 346 351 356 357 356 349 348 351 348 345 344 344 340 335 329 323 312 306 306 311 305 273 224 210 246 281 290 239 239 312 322 318 313 301 308
354 357 359 2 3 4 3 360 355 347 343 340 342 341 340 339 334 326 321 319 323 316 311 294 274 266 214 346 320 304 289 238 215 230 286 323 328 338
0 9 10 18 15 12 6 359 353 347 345 342 337 335 334 334 330 325 323 320 313 303 295 296 315 350 44 283 284 286 297 303 273 247 232 213 212 278
16 30 30 20 15 10 5 359 354 340 334 331 330 330 330 329 325 323 322 323 324 330 335 334 340 348 314 273 279 286 298 305 317 325 302 258 235 247